owner,sensor,date,latitude,longitude,vertical_datum,sea_water_practical_salinity,qcFlag 
DISL,ioos:station:DISL:DISL:1,2014-07-01T00:00:00Z,30.2513,-88.0778,1.877,14.74,1111122 
DISL,ioos:station:DISL:DISL:1,2014-07-01T00:30:00Z,30.2513,-88.0778,1.867,16.29,1111122 
DISL,ioos:station:DISL:DISL:1,2014-07-01T01:00:00Z,30.2513,-88.0778,1.854,16.51,1111122 
DISL,ioos:station:DISL:DISL:1,2014-07-01T01:30:00Z,30.2513,-88.0778,1.841,16.68,1111122 
DISL,ioos:station:DISL:DISL:1,2014-07-01T02:00:00Z,30.2513,-88.0778,1.831,17.89,1111122 
DISL,ioos:station:DISL:DISL:1,2014-07-01T02:30:00Z,30.2513,-88.0778,1.812,18.11,1111122 
DISL,ioos:station:DISL:DISL:1,2014-07-01T03:00:00Z,30.2513,-88.0778,1.807,18.53,1111122 
DISL,ioos:station:DISL:DISL:1,2014-07-01T03:30:00Z,30.2513,-88.0778,1.807,18.65,1111122 
DISL,ioos:station:DISL:DISL:1,2014-07-01T04:00:00Z,30.2513,-88.0778,1.795,18.57,1111122 
DISL,ioos:station:DISL:DISL:1,2014-07-01T04:30:00Z,30.2513,-88.0778,1.781,18.79,1111122 
DISL,ioos:station:DISL:DISL:1,2014-07-01T05:00:00Z,30.2513,-88.0778,1.778,18.83,1111122 
DISL,ioos:station:DISL:DISL:1,2014-07-01T05:30:00Z,30.2513,-88.0778,1.792,18.89,1111122 
DISL,ioos:station:DISL:DISL:1,2014-07-01T06:00:00Z,30.2513,-88.0778,1.794,18.66,1111122 
DISL,ioos:station:DISL:DISL:1,2014-07-01T06:30:00Z,30.2513,-88.0778,1.817,18.72,1111122 
DISL,ioos:station:DISL:DISL:1,2014-07-01T07:00:00Z,30.2513,-88.0778,1.789,17.87,1111122 
DISL,ioos:station:DISL:DISL:1,2014-07-01T07:30:00Z,30.2513,-88.0778,1.83,17.07,1111122 
DISL,ioos:station:DISL:DISL:1,2014-07-01T08:00:00Z,30.2513,-88.0778,1.828,15.6,1111122 
DISL,ioos:station:DISL:DISL:1,2014-07-01T08:30:00Z,30.2513,-88.0778,1.851,15.44,1111122 
DISL,ioos:station:DISL:DISL:1,2014-07-01T09:00:00Z,30.2513,-88.0778,1.871,15.39,1111122 
DISL,ioos:station:DISL:DISL:1,2014-07-01T09:30:00Z,30.2513,-88.0778,1.889,15.41,1111122 
DISL,ioos:station:DISL:DISL:1,2014-07-01T10:00:00Z,30.2513,-88.0778,1.915,15.3,1111122 
DISL,ioos:station:DISL:DISL:1,2014-07-01T10:30:00Z,30.2513,-88.0778,1.934,15.34,1111122 
DISL,ioos:station:DISL:DISL:1,2014-07-01T11:00:00Z,30.2513,-88.0778,1.928,15.49,1111122 
DISL,ioos:station:DISL:DISL:1,2014-07-01T11:30:00Z,30.2513,-88.0778,1.955,15.56,1111122 
DISL,ioos:station:DISL:DISL:1,2014-07-01T12:00:00Z,30.2513,-88.0778,1.935,14.43,1111122 
DISL,ioos:station:DISL:DISL:1,2014-07-01T12:30:00Z,30.2513,-88.0778,1.963,14.54,1111122 
DISL,ioos:station:DISL:DISL:1,2014-07-01T13:00:00Z,30.2513,-88.0778,1.97,15.52,1111122 
DISL,ioos:station:DISL:DISL:1,2014-07-01T13:30:00Z,30.2513,-88.0778,2.006,15.87,1111122 
DISL,ioos:station:DISL:DISL:1,2014-07-01T14:00:00Z,30.2513,-88.0778,2.012,15.88,1111122 
DISL,ioos:station:DISL:DISL:1,2014-07-01T14:30:00Z,30.2513,-88.0778,2.01,16.13,1111122 
DISL,ioos:station:DISL:DISL:1,2014-07-01T15:00:00Z,30.2513,-88.0778,1.992,15.97,1111122 
DISL,ioos:station:DISL:DISL:1,2014-07-01T15:30:00Z,30.2513,-88.0778,2.028,15.87,1111122 
DISL,ioos:station:DISL:DISL:1,2014-07-01T16:00:00Z,30.2513,-88.0778,2.038,15.79,1111122 
DISL,ioos:station:DISL:DISL:1,2014-07-01T16:30:00Z,30.2513,-88.0778,2.045,15.74,1111122 
DISL,ioos:station:DISL:DISL:1,2014-07-01T17:00:00Z,30.2513,-88.0778,2.065,15.77,1111122 
DISL,ioos:station:DISL:DISL:1,2014-07-01T17:30:00Z,30.2513,-88.0778,2.046,15.8,1111122 
DISL,ioos:station:DISL:DISL:1,2014-07-01T18:00:00Z,30.2513,-88.0778,2.036,15.96,1111122 
DISL,ioos:station:DISL:DISL:1,2014-07-01T18:30:00Z,30.2513,-88.0778,2.038,16.07,1111122 
DISL,ioos:station:DISL:DISL:1,2014-07-01T19:00:00Z,30.2513,-88.0778,2.036,15.53,1111122 
DISL,ioos:station:DISL:DISL:1,2014-07-01T19:30:00Z,30.2513,-88.0778,2.015,15.81,1111122 
DISL,ioos:station:DISL:DISL:1,2014-07-01T20:00:00Z,30.2513,-88.0778,2.03,16.07,1111122 
DISL,ioos:station:DISL:DISL:1,2014-07-01T20:30:00Z,30.2513,-88.0778,2.004,16.14,1111122 
DISL,ioos:station:DISL:DISL:1,2014-07-01T21:00:00Z,30.2513,-88.0778,2.001,16.12,1111122 
DISL,ioos:station:DISL:DISL:1,2014-07-01T21:30:00Z,30.2513,-88.0778,1.975,16.11,1111122 
DISL,ioos:station:DISL:DISL:1,2014-07-01T22:00:00Z,30.2513,-88.0778,1.964,16.05,1111122 
DISL,ioos:station:DISL:DISL:1,2014-07-01T22:30:00Z,30.2513,-88.0778,1.898,16.01,1111122 
DISL,ioos:station:DISL:DISL:1,2014-07-01T23:00:00Z,30.2513,-88.0778,1.907,15.84,1111122 
DISL,ioos:station:DISL:DISL:1,2014-07-01T23:30:00Z,30.2513,-88.0778,1.916,15.78,1111122 
DISL,ioos:station:DISL:DISL:1,2014-07-02T00:00:00Z,30.2513,-88.0778,1.875,15.39,1111122 
DISL,ioos:station:DISL:DISL:1,2014-07-02T00:30:00Z,30.2513,-88.0778,1.879,15.83,1111122 
DISL,ioos:station:DISL:DISL:1,2014-07-02T01:00:00Z,30.2513,-88.0778,1.854,16.02,1111122 
DISL,ioos:station:DISL:DISL:1,2014-07-02T01:30:00Z,30.2513,-88.0778,1.854,16.4,1111122 
DISL,ioos:station:DISL:DISL:1,2014-07-02T02:00:00Z,30.2513,-88.0778,1.847,16.44,1111122 
DISL,ioos:station:DISL:DISL:1,2014-07-02T02:30:00Z,30.2513,-88.0778,1.848,16.91,1111122 
DISL,ioos:station:DISL:DISL:1,2014-07-02T03:00:00Z,30.2513,-88.0778,1.837,17.35,1111122 
DISL,ioos:station:DISL:DISL:1,2014-07-02T03:30:00Z,30.2513,-88.0778,1.85,17.7,1111122 
DISL,ioos:station:DISL:DISL:1,2014-07-02T04:00:00Z,30.2513,-88.0778,1.835,17.41,1111122 
DISL,ioos:station:DISL:DISL:1,2014-07-02T04:30:00Z,30.2513,-88.0778,1.842,17.53,1111122 
DISL,ioos:station:DISL:DISL:1,2014-07-02T05:00:00Z,30.2513,-88.0778,1.852,17.15,1111122 
DISL,ioos:station:DISL:DISL:1,2014-07-02T05:30:00Z,30.2513,-88.0778,1.855,16.42,1111122 
DISL,ioos:station:DISL:DISL:1,2014-07-02T06:00:00Z,30.2513,-88.0778,1.867,16.46,1111122 
DISL,ioos:station:DISL:DISL:1,2014-07-02T06:30:00Z,30.2513,-88.0778,1.865,16.04,1111122 
DISL,ioos:station:DISL:DISL:1,2014-07-02T07:00:00Z,30.2513,-88.0778,1.874,16.86,1111122 
DISL,ioos:station:DISL:DISL:1,2014-07-02T07:30:00Z,30.2513,-88.0778,1.865,17.49,1111122 
DISL,ioos:station:DISL:DISL:1,2014-07-02T08:00:00Z,30.2513,-88.0778,1.887,16.28,1111122 
DISL,ioos:station:DISL:DISL:1,2014-07-02T08:30:00Z,30.2513,-88.0778,1.897,15.91,1111122 
DISL,ioos:station:DISL:DISL:1,2014-07-02T09:00:00Z,30.2513,-88.0778,1.889,15.96,1111122 
DISL,ioos:station:DISL:DISL:1,2014-07-02T09:30:00Z,30.2513,-88.0778,1.916,16.06,1111122 
DISL,ioos:station:DISL:DISL:1,2014-07-02T10:00:00Z,30.2513,-88.0778,1.908,16.17,1111122 
DISL,ioos:station:DISL:DISL:1,2014-07-02T10:30:00Z,30.2513,-88.0778,1.925,16.04,1111122 
DISL,ioos:station:DISL:DISL:1,2014-07-02T11:00:00Z,30.2513,-88.0778,1.94,16.15,1111122 
DISL,ioos:station:DISL:DISL:1,2014-07-02T11:30:00Z,30.2513,-88.0778,1.954,16.06,1111122 
DISL,ioos:station:DISL:DISL:1,2014-07-02T12:00:00Z,30.2513,-88.0778,1.945,16.11,1111122 
DISL,ioos:station:DISL:DISL:1,2014-07-02T12:30:00Z,30.2513,-88.0778,1.961,16.14,1111122 
DISL,ioos:station:DISL:DISL:1,2014-07-02T13:00:00Z,30.2513,-88.0778,1.969,15.97,1111122 
DISL,ioos:station:DISL:DISL:1,2014-07-02T13:30:00Z,30.2513,-88.0778,1.976,15.8,1111122 
DISL,ioos:station:DISL:DISL:1,2014-07-02T14:00:00Z,30.2513,-88.0778,1.998,15.84,1111122 
DISL,ioos:station:DISL:DISL:1,2014-07-02T14:30:00Z,30.2513,-88.0778,2.005,17.78,1111122 
DISL,ioos:station:DISL:DISL:1,2014-07-02T15:00:00Z,30.2513,-88.0778,2.014,20.42,1111122 
DISL,ioos:station:DISL:DISL:1,2014-07-02T15:30:00Z,30.2513,-88.0778,2.024,19.44,1111122 
DISL,ioos:station:DISL:DISL:1,2014-07-02T16:00:00Z,30.2513,-88.0778,2.045,17.97,1111122 
DISL,ioos:station:DISL:DISL:1,2014-07-02T16:30:00Z,30.2513,-88.0778,2.051,20.87,1111122 
DISL,ioos:station:DISL:DISL:1,2014-07-02T17:00:00Z,30.2513,-88.0778,2.046,21.11,1111122 
DISL,ioos:station:DISL:DISL:1,2014-07-02T17:30:00Z,30.2513,-88.0778,2.058,18.71,1111122 
DISL,ioos:station:DISL:DISL:1,2014-07-02T18:00:00Z,30.2513,-88.0778,2.046,17.55,1111122 
DISL,ioos:station:DISL:DISL:1,2014-07-02T18:30:00Z,30.2513,-88.0778,2.036,16.83,1111122 
DISL,ioos:station:DISL:DISL:1,2014-07-02T19:00:00Z,30.2513,-88.0778,2.034,16.99,1111122 
DISL,ioos:station:DISL:DISL:1,2014-07-02T19:30:00Z,30.2513,-88.0778,2.048,17.06,1111122 
DISL,ioos:station:DISL:DISL:1,2014-07-02T20:00:00Z,30.2513,-88.0778,2.047,16.87,1111122 
DISL,ioos:station:DISL:DISL:1,2014-07-02T20:30:00Z,30.2513,-88.0778,2.015,16.68,1111122 
DISL,ioos:station:DISL:DISL:1,2014-07-02T21:00:00Z,30.2513,-88.0778,2.007,16.78,1111122 
DISL,ioos:station:DISL:DISL:1,2014-07-02T21:30:00Z,30.2513,-88.0778,1.983,17.05,1111122 
DISL,ioos:station:DISL:DISL:1,2014-07-02T22:00:00Z,30.2513,-88.0778,1.976,17.09,1111122 
DISL,ioos:station:DISL:DISL:1,2014-07-02T22:30:00Z,30.2513,-88.0778,1.957,17.24,1111122 
DISL,ioos:station:DISL:DISL:1,2014-07-02T23:00:00Z,30.2513,-88.0778,1.944,17.21,1111122 
DISL,ioos:station:DISL:DISL:1,2014-07-02T23:30:00Z,30.2513,-88.0778,1.942,16.95,1111122 
DISL,ioos:station:DISL:DISL:1,2014-07-03T00:00:00Z,30.2513,-88.0778,1.921,17.06,1111122 
DISL,ioos:station:DISL:DISL:1,2014-07-03T00:30:00Z,30.2513,-88.0778,1.898,17.16,1111122 
DISL,ioos:station:DISL:DISL:1,2014-07-03T01:00:00Z,30.2513,-88.0778,1.872,16.95,1111122 
DISL,ioos:station:DISL:DISL:1,2014-07-03T01:30:00Z,30.2513,-88.0778,1.886,17.12,1111122 
DISL,ioos:station:DISL:DISL:1,2014-07-03T02:00:00Z,30.2513,-88.0778,1.888,17.2,1111122 
DISL,ioos:station:DISL:DISL:1,2014-07-03T02:30:00Z,30.2513,-88.0778,1.869,17.24,1111122 
DISL,ioos:station:DISL:DISL:1,2014-07-03T03:00:00Z,30.2513,-88.0778,1.85,17.25,1111122 
DISL,ioos:station:DISL:DISL:1,2014-07-03T03:30:00Z,30.2513,-88.0778,1.857,17.29,1111122 
DISL,ioos:station:DISL:DISL:1,2014-07-03T04:00:00Z,30.2513,-88.0778,1.859,17.31,1111122 
DISL,ioos:station:DISL:DISL:1,2014-07-03T04:30:00Z,30.2513,-88.0778,1.856,15.36,1111122 
DISL,ioos:station:DISL:DISL:1,2014-07-03T05:00:00Z,30.2513,-88.0778,1.877,14.49,1111122 
DISL,ioos:station:DISL:DISL:1,2014-07-03T05:30:00Z,30.2513,-88.0778,1.863,14.62,1111122 
DISL,ioos:station:DISL:DISL:1,2014-07-03T06:00:00Z,30.2513,-88.0778,1.882,14.51,1111122 
DISL,ioos:station:DISL:DISL:1,2014-07-03T06:30:00Z,30.2513,-88.0778,1.855,14.45,1111122 
DISL,ioos:station:DISL:DISL:1,2014-07-03T07:00:00Z,30.2513,-88.0778,1.802,15.12,1111122 
DISL,ioos:station:DISL:DISL:1,2014-07-03T07:30:00Z,30.2513,-88.0778,1.852,14.6,1111122 
DISL,ioos:station:DISL:DISL:1,2014-07-03T08:00:00Z,30.2513,-88.0778,1.82,12.83,1111122 
DISL,ioos:station:DISL:DISL:1,2014-07-03T08:30:00Z,30.2513,-88.0778,1.893,12.8,1111122 
DISL,ioos:station:DISL:DISL:1,2014-07-03T09:00:00Z,30.2513,-88.0778,1.883,14.72,1111122 
DISL,ioos:station:DISL:DISL:1,2014-07-03T09:30:00Z,30.2513,-88.0778,1.867,16.65,1111122 
DISL,ioos:station:DISL:DISL:1,2014-07-03T10:00:00Z,30.2513,-88.0778,1.905,16.87,1111122 
DISL,ioos:station:DISL:DISL:1,2014-07-03T10:30:00Z,30.2513,-88.0778,1.907,15.73,1111122 
DISL,ioos:station:DISL:DISL:1,2014-07-03T11:00:00Z,30.2513,-88.0778,1.926,13.96,1111122 
DISL,ioos:station:DISL:DISL:1,2014-07-03T11:30:00Z,30.2513,-88.0778,1.987,13.43,1111122 
DISL,ioos:station:DISL:DISL:1,2014-07-03T12:00:00Z,30.2513,-88.0778,1.977,14.59,1111122 
DISL,ioos:station:DISL:DISL:1,2014-07-03T12:30:00Z,30.2513,-88.0778,1.974,21.4,1111122 
DISL,ioos:station:DISL:DISL:1,2014-07-03T13:00:00Z,30.2513,-88.0778,1.985,19.56,1111122 
DISL,ioos:station:DISL:DISL:1,2014-07-03T13:30:00Z,30.2513,-88.0778,1.974,17.03,1111122 
DISL,ioos:station:DISL:DISL:1,2014-07-03T14:00:00Z,30.2513,-88.0778,1.985,17.23,1111122 
DISL,ioos:station:DISL:DISL:1,2014-07-03T14:30:00Z,30.2513,-88.0778,2.06,17.16,1111122 
DISL,ioos:station:DISL:DISL:1,2014-07-03T15:00:00Z,30.2513,-88.0778,2.011,14.36,1111122 
DISL,ioos:station:DISL:DISL:1,2014-07-03T15:30:00Z,30.2513,-88.0778,2.052,12.98,1111122 
DISL,ioos:station:DISL:DISL:1,2014-07-03T16:00:00Z,30.2513,-88.0778,1.979,13.04,1111122 
DISL,ioos:station:DISL:DISL:1,2014-07-03T16:30:00Z,30.2513,-88.0778,2.034,12.75,1111122 
DISL,ioos:station:DISL:DISL:1,2014-07-03T17:00:00Z,30.2513,-88.0778,2.018,11.83,1111122 
DISL,ioos:station:DISL:DISL:1,2014-07-03T17:30:00Z,30.2513,-88.0778,2.033,11.8,1111122 
DISL,ioos:station:DISL:DISL:1,2014-07-03T18:00:00Z,30.2513,-88.0778,2.051,12.06,1111122 
DISL,ioos:station:DISL:DISL:1,2014-07-03T18:30:00Z,30.2513,-88.0778,1.997,12.94,1111122 
DISL,ioos:station:DISL:DISL:1,2014-07-03T19:00:00Z,30.2513,-88.0778,2.016,12.84,1111122 
DISL,ioos:station:DISL:DISL:1,2014-07-03T19:30:00Z,30.2513,-88.0778,1.992,22.73,1111122 
DISL,ioos:station:DISL:DISL:1,2014-07-03T20:00:00Z,30.2513,-88.0778,2.023,16.48,1111122 
DISL,ioos:station:DISL:DISL:1,2014-07-03T20:30:00Z,30.2513,-88.0778,2.014,15.53,1111122 
DISL,ioos:station:DISL:DISL:1,2014-07-03T21:00:00Z,30.2513,-88.0778,1.997,15.64,1111122 
DISL,ioos:station:DISL:DISL:1,2014-07-03T21:30:00Z,30.2513,-88.0778,2.011,14.19,1111122 
DISL,ioos:station:DISL:DISL:1,2014-07-03T22:00:00Z,30.2513,-88.0778,1.995,14.61,1111122 
DISL,ioos:station:DISL:DISL:1,2014-07-03T22:30:00Z,30.2513,-88.0778,1.993,13.67,1111122 
DISL,ioos:station:DISL:DISL:1,2014-07-03T23:00:00Z,30.2513,-88.0778,1.963,15.29,1111122 
DISL,ioos:station:DISL:DISL:1,2014-07-03T23:30:00Z,30.2513,-88.0778,1.953,15.24,1111122 
DISL,ioos:station:DISL:DISL:1,2014-07-04T00:00:00Z,30.2513,-88.0778,1.944,15.81,1111122 
DISL,ioos:station:DISL:DISL:1,2014-07-04T00:30:00Z,30.2513,-88.0778,1.936,16.06,1111122 
DISL,ioos:station:DISL:DISL:1,2014-07-04T01:00:00Z,30.2513,-88.0778,1.895,16.13,1111122 
DISL,ioos:station:DISL:DISL:1,2014-07-04T01:30:00Z,30.2513,-88.0778,1.91,16.08,1111122 
DISL,ioos:station:DISL:DISL:1,2014-07-04T02:00:00Z,30.2513,-88.0778,1.899,12.29,1111122 
DISL,ioos:station:DISL:DISL:1,2014-07-04T02:30:00Z,30.2513,-88.0778,1.899,11.72,1111122 
DISL,ioos:station:DISL:DISL:1,2014-07-04T03:00:00Z,30.2513,-88.0778,1.901,11.5,1111122 
DISL,ioos:station:DISL:DISL:1,2014-07-04T03:30:00Z,30.2513,-88.0778,1.9,11.39,1111122 
DISL,ioos:station:DISL:DISL:1,2014-07-04T04:00:00Z,30.2513,-88.0778,1.894,11.3,1111122 
DISL,ioos:station:DISL:DISL:1,2014-07-04T04:30:00Z,30.2513,-88.0778,1.893,11.49,1111122 
DISL,ioos:station:DISL:DISL:1,2014-07-04T05:00:00Z,30.2513,-88.0778,1.902,11.58,1111122 
DISL,ioos:station:DISL:DISL:1,2014-07-04T05:30:00Z,30.2513,-88.0778,1.887,11.64,1111122 
DISL,ioos:station:DISL:DISL:1,2014-07-04T06:00:00Z,30.2513,-88.0778,1.918,11.61,1111122 
DISL,ioos:station:DISL:DISL:1,2014-07-04T06:30:00Z,30.2513,-88.0778,1.917,11.6,1111122 
DISL,ioos:station:DISL:DISL:1,2014-07-04T07:00:00Z,30.2513,-88.0778,1.923,11.62,1111122 
DISL,ioos:station:DISL:DISL:1,2014-07-04T07:30:00Z,30.2513,-88.0778,1.932,11.63,1111122 
DISL,ioos:station:DISL:DISL:1,2014-07-04T08:00:00Z,30.2513,-88.0778,1.95,11.67,1111122 
DISL,ioos:station:DISL:DISL:1,2014-07-04T08:30:00Z,30.2513,-88.0778,1.954,11.9,1111122 
DISL,ioos:station:DISL:DISL:1,2014-07-04T09:00:00Z,30.2513,-88.0778,1.961,11.7,1111122 
DISL,ioos:station:DISL:DISL:1,2014-07-04T09:30:00Z,30.2513,-88.0778,1.948,12.01,1111122 
DISL,ioos:station:DISL:DISL:1,2014-07-04T10:00:00Z,30.2513,-88.0778,1.97,11.89,1111122 
DISL,ioos:station:DISL:DISL:1,2014-07-04T10:30:00Z,30.2513,-88.0778,1.964,16.82,1111122 
DISL,ioos:station:DISL:DISL:1,2014-07-04T11:00:00Z,30.2513,-88.0778,1.966,18.83,1111122 
DISL,ioos:station:DISL:DISL:1,2014-07-04T11:30:00Z,30.2513,-88.0778,1.953,17.25,1111122 
DISL,ioos:station:DISL:DISL:1,2014-07-04T12:00:00Z,30.2513,-88.0778,1.954,12.21,1111122 
DISL,ioos:station:DISL:DISL:1,2014-07-04T12:30:00Z,30.2513,-88.0778,1.98,11.89,1111122 
DISL,ioos:station:DISL:DISL:1,2014-07-04T13:00:00Z,30.2513,-88.0778,1.962,11.68,1111122 
DISL,ioos:station:DISL:DISL:1,2014-07-04T13:30:00Z,30.2513,-88.0778,1.946,11.7,1111122 
DISL,ioos:station:DISL:DISL:1,2014-07-04T14:00:00Z,30.2513,-88.0778,1.939,11.69,1111122 
DISL,ioos:station:DISL:DISL:1,2014-07-04T14:30:00Z,30.2513,-88.0778,1.919,11.78,1111122 
DISL,ioos:station:DISL:DISL:1,2014-07-04T15:00:00Z,30.2513,-88.0778,1.932,11.9,1111122 
DISL,ioos:station:DISL:DISL:1,2014-07-04T15:30:00Z,30.2513,-88.0778,1.931,11.83,1111122 
DISL,ioos:station:DISL:DISL:1,2014-07-04T16:00:00Z,30.2513,-88.0778,1.942,11.82,1111122 
DISL,ioos:station:DISL:DISL:1,2014-07-04T16:30:00Z,30.2513,-88.0778,1.929,12.03,1111122 
DISL,ioos:station:DISL:DISL:1,2014-07-04T17:00:00Z,30.2513,-88.0778,1.919,12.22,1111122 
DISL,ioos:station:DISL:DISL:1,2014-07-04T17:30:00Z,30.2513,-88.0778,1.926,12.2,1111122 
DISL,ioos:station:DISL:DISL:1,2014-07-04T18:00:00Z,30.2513,-88.0778,1.933,12.13,1111122 
DISL,ioos:station:DISL:DISL:1,2014-07-04T18:30:00Z,30.2513,-88.0778,1.936,12.98,1111122 
DISL,ioos:station:DISL:DISL:1,2014-07-04T19:00:00Z,30.2513,-88.0778,1.912,13.01,1111122 
DISL,ioos:station:DISL:DISL:1,2014-07-04T19:30:00Z,30.2513,-88.0778,1.921,14.46,1111122 
DISL,ioos:station:DISL:DISL:1,2014-07-04T20:00:00Z,30.2513,-88.0778,1.905,13.59,1111122 
DISL,ioos:station:DISL:DISL:1,2014-07-04T20:30:00Z,30.2513,-88.0778,1.906,13.47,1111122 
DISL,ioos:station:DISL:DISL:1,2014-07-04T21:00:00Z,30.2513,-88.0778,1.891,13.49,1111122 
DISL,ioos:station:DISL:DISL:1,2014-07-04T21:30:00Z,30.2513,-88.0778,1.892,13.58,1111122 
DISL,ioos:station:DISL:DISL:1,2014-07-04T22:00:00Z,30.2513,-88.0778,1.901,12.06,1111122 
DISL,ioos:station:DISL:DISL:1,2014-07-04T22:30:00Z,30.2513,-88.0778,1.897,12.4,1111122 
DISL,ioos:station:DISL:DISL:1,2014-07-04T23:00:00Z,30.2513,-88.0778,1.862,11.81,1111122 
DISL,ioos:station:DISL:DISL:1,2014-07-04T23:30:00Z,30.2513,-88.0778,1.871,12.82,1111122 
DISL,ioos:station:DISL:DISL:1,2014-07-05T00:00:00Z,30.2513,-88.0778,1.868,13.76,1111122 
DISL,ioos:station:DISL:DISL:1,2014-07-05T00:30:00Z,30.2513,-88.0778,1.851,13.62,1111122 
DISL,ioos:station:DISL:DISL:1,2014-07-05T01:00:00Z,30.2513,-88.0778,1.855,13.73,1111122 
DISL,ioos:station:DISL:DISL:1,2014-07-05T01:30:00Z,30.2513,-88.0778,1.864,12.25,1111122 
DISL,ioos:station:DISL:DISL:1,2014-07-05T02:00:00Z,30.2513,-88.0778,1.857,11.71,1111122 
DISL,ioos:station:DISL:DISL:1,2014-07-05T02:30:00Z,30.2513,-88.0778,1.859,11.79,1111122 
DISL,ioos:station:DISL:DISL:1,2014-07-05T03:00:00Z,30.2513,-88.0778,1.857,11.88,1111122 
DISL,ioos:station:DISL:DISL:1,2014-07-05T03:30:00Z,30.2513,-88.0778,1.846,11.91,1111122 
DISL,ioos:station:DISL:DISL:1,2014-07-05T04:00:00Z,30.2513,-88.0778,1.853,11.73,1111122 
DISL,ioos:station:DISL:DISL:1,2014-07-05T04:30:00Z,30.2513,-88.0778,1.851,11.41,1111122 
DISL,ioos:station:DISL:DISL:1,2014-07-05T05:00:00Z,30.2513,-88.0778,1.855,11.32,1111122 
DISL,ioos:station:DISL:DISL:1,2014-07-05T05:30:00Z,30.2513,-88.0778,1.871,11.21,1111122 
DISL,ioos:station:DISL:DISL:1,2014-07-05T06:00:00Z,30.2513,-88.0778,1.87,11.04,1111122 
DISL,ioos:station:DISL:DISL:1,2014-07-05T06:30:00Z,30.2513,-88.0778,1.89,11.01,1111122 
DISL,ioos:station:DISL:DISL:1,2014-07-05T07:00:00Z,30.2513,-88.0778,1.869,11.97,1111122 
DISL,ioos:station:DISL:DISL:1,2014-07-05T07:30:00Z,30.2513,-88.0778,1.886,18.34,1111122 
DISL,ioos:station:DISL:DISL:1,2014-07-05T08:00:00Z,30.2513,-88.0778,1.887,20.67,1111122 
DISL,ioos:station:DISL:DISL:1,2014-07-05T08:30:00Z,30.2513,-88.0778,1.902,21.18,1111122 
DISL,ioos:station:DISL:DISL:1,2014-07-05T09:00:00Z,30.2513,-88.0778,1.919,20.74,1111122 
DISL,ioos:station:DISL:DISL:1,2014-07-05T09:30:00Z,30.2513,-88.0778,1.937,22.57,1111122 
DISL,ioos:station:DISL:DISL:1,2014-07-05T10:00:00Z,30.2513,-88.0778,1.949,24.83,1111122 
DISL,ioos:station:DISL:DISL:1,2014-07-05T10:30:00Z,30.2513,-88.0778,1.959,23.38,1111122 
DISL,ioos:station:DISL:DISL:1,2014-07-05T11:00:00Z,30.2513,-88.0778,1.988,20.7,1111122 
DISL,ioos:station:DISL:DISL:1,2014-07-05T11:30:00Z,30.2513,-88.0778,1.993,20.03,1111122 
DISL,ioos:station:DISL:DISL:1,2014-07-05T12:00:00Z,30.2513,-88.0778,2.034,15.07,1111122 
DISL,ioos:station:DISL:DISL:1,2014-07-05T12:30:00Z,30.2513,-88.0778,2.017,19.81,1111122 
DISL,ioos:station:DISL:DISL:1,2014-07-05T13:00:00Z,30.2513,-88.0778,2.001,15.42,1111122 
DISL,ioos:station:DISL:DISL:1,2014-07-05T13:30:00Z,30.2513,-88.0778,2.012,15.09,1111122 
DISL,ioos:station:DISL:DISL:1,2014-07-05T14:00:00Z,30.2513,-88.0778,2.009,14.63,1111122 
DISL,ioos:station:DISL:DISL:1,2014-07-05T14:30:00Z,30.2513,-88.0778,1.981,14.11,1111122 
DISL,ioos:station:DISL:DISL:1,2014-07-05T15:00:00Z,30.2513,-88.0778,1.993,13.44,1111122 
DISL,ioos:station:DISL:DISL:1,2014-07-05T15:30:00Z,30.2513,-88.0778,1.982,14.9,1111122 
DISL,ioos:station:DISL:DISL:1,2014-07-05T16:00:00Z,30.2513,-88.0778,1.975,14.25,1111122 
DISL,ioos:station:DISL:DISL:1,2014-07-05T16:30:00Z,30.2513,-88.0778,1.975,13.68,1111122 
DISL,ioos:station:DISL:DISL:1,2014-07-05T17:00:00Z,30.2513,-88.0778,1.994,14.46,1111122 
DISL,ioos:station:DISL:DISL:1,2014-07-05T17:30:00Z,30.2513,-88.0778,1.958,14.09,1111122 
DISL,ioos:station:DISL:DISL:1,2014-07-05T18:00:00Z,30.2513,-88.0778,1.956,13.97,1111122 
DISL,ioos:station:DISL:DISL:1,2014-07-05T18:30:00Z,30.2513,-88.0778,1.945,14.68,1111122 
DISL,ioos:station:DISL:DISL:1,2014-07-05T19:00:00Z,30.2513,-88.0778,1.946,14.65,1111122 
DISL,ioos:station:DISL:DISL:1,2014-07-05T19:30:00Z,30.2513,-88.0778,1.938,14.72,1111122 
DISL,ioos:station:DISL:DISL:1,2014-07-05T20:00:00Z,30.2513,-88.0778,1.936,14.75,1111122 
DISL,ioos:station:DISL:DISL:1,2014-07-05T20:30:00Z,30.2513,-88.0778,1.933,14.86,1111122 
DISL,ioos:station:DISL:DISL:1,2014-07-05T21:00:00Z,30.2513,-88.0778,1.9,14.79,1111122 
DISL,ioos:station:DISL:DISL:1,2014-07-05T21:30:00Z,30.2513,-88.0778,1.896,14.82,1111122 
DISL,ioos:station:DISL:DISL:1,2014-07-05T22:00:00Z,30.2513,-88.0778,1.892,14.86,1111122 
DISL,ioos:station:DISL:DISL:1,2014-07-05T22:30:00Z,30.2513,-88.0778,1.9,14.86,1111122 
DISL,ioos:station:DISL:DISL:1,2014-07-05T23:00:00Z,30.2513,-88.0778,1.877,14.79,1111122 
DISL,ioos:station:DISL:DISL:1,2014-07-05T23:30:00Z,30.2513,-88.0778,1.885,14.99,1111122 
DISL,ioos:station:DISL:DISL:1,2014-07-06T00:00:00Z,30.2513,-88.0778,1.882,15.62,1111122 
DISL,ioos:station:DISL:DISL:1,2014-07-06T00:30:00Z,30.2513,-88.0778,1.882,15.11,1111122 
DISL,ioos:station:DISL:DISL:1,2014-07-06T01:00:00Z,30.2513,-88.0778,1.916,15.16,1111122 
DISL,ioos:station:DISL:DISL:1,2014-07-06T01:30:00Z,30.2513,-88.0778,1.908,15.32,1111122 
DISL,ioos:station:DISL:DISL:1,2014-07-06T02:00:00Z,30.2513,-88.0778,1.901,15.43,1111122 
DISL,ioos:station:DISL:DISL:1,2014-07-06T02:30:00Z,30.2513,-88.0778,1.895,15.43,1111122 
DISL,ioos:station:DISL:DISL:1,2014-07-06T03:00:00Z,30.2513,-88.0778,1.893,15.63,1111122 
DISL,ioos:station:DISL:DISL:1,2014-07-06T03:30:00Z,30.2513,-88.0778,1.907,15.08,1111122 
DISL,ioos:station:DISL:DISL:1,2014-07-06T04:00:00Z,30.2513,-88.0778,1.908,15.54,1111122 
DISL,ioos:station:DISL:DISL:1,2014-07-06T04:30:00Z,30.2513,-88.0778,1.904,15.49,1111122 
DISL,ioos:station:DISL:DISL:1,2014-07-06T05:00:00Z,30.2513,-88.0778,1.908,18.0,1111122 
DISL,ioos:station:DISL:DISL:1,2014-07-06T05:30:00Z,30.2513,-88.0778,1.935,19.12,1111122 
DISL,ioos:station:DISL:DISL:1,2014-07-06T06:00:00Z,30.2513,-88.0778,1.932,20.96,1111122 
DISL,ioos:station:DISL:DISL:1,2014-07-06T06:30:00Z,30.2513,-88.0778,1.961,19.83,1111122 
DISL,ioos:station:DISL:DISL:1,2014-07-06T07:00:00Z,30.2513,-88.0778,1.949,28.25,1111122 
DISL,ioos:station:DISL:DISL:1,2014-07-06T07:30:00Z,30.2513,-88.0778,1.964,29.3,1111122 
DISL,ioos:station:DISL:DISL:1,2014-07-06T08:00:00Z,30.2513,-88.0778,1.986,29.43,1111122 
DISL,ioos:station:DISL:DISL:1,2014-07-06T08:30:00Z,30.2513,-88.0778,1.996,28.65,1111122 
DISL,ioos:station:DISL:DISL:1,2014-07-06T09:00:00Z,30.2513,-88.0778,2.008,20.59,1111122 
DISL,ioos:station:DISL:DISL:1,2014-07-06T09:30:00Z,30.2513,-88.0778,2.02,19.94,1111122 
DISL,ioos:station:DISL:DISL:1,2014-07-06T10:00:00Z,30.2513,-88.0778,2.037,17.83,1111122 
DISL,ioos:station:DISL:DISL:1,2014-07-06T10:30:00Z,30.2513,-88.0778,2.062,16.77,1111122 
DISL,ioos:station:DISL:DISL:1,2014-07-06T11:00:00Z,30.2513,-88.0778,2.063,16.33,1111122 
DISL,ioos:station:DISL:DISL:1,2014-07-06T11:30:00Z,30.2513,-88.0778,2.066,15.5,1111122 
DISL,ioos:station:DISL:DISL:1,2014-07-06T12:00:00Z,30.2513,-88.0778,2.077,15.03,1111122 
DISL,ioos:station:DISL:DISL:1,2014-07-06T12:30:00Z,30.2513,-88.0778,2.051,15.0,1111122 
DISL,ioos:station:DISL:DISL:1,2014-07-06T13:00:00Z,30.2513,-88.0778,2.043,14.37,1111122 
DISL,ioos:station:DISL:DISL:1,2014-07-06T13:30:00Z,30.2513,-88.0778,2.053,14.52,1111122 
DISL,ioos:station:DISL:DISL:1,2014-07-06T14:00:00Z,30.2513,-88.0778,2.037,15.14,1111122 